星链-32371 (STARLINK-32371)

导读

STARLINK-32371是美国SpaceX星链星座中的一颗卫星,于2024年8月31日发射升空。作为星链网络的组成部分,它主要为全球提供高速互联网服务,尤其覆盖偏远地区。卫星入轨后将参与星座组网,提升星链系统的服务容量与覆盖能力,支撑低轨卫星互联网的持续运营与拓展。

Basic Information
目录编号:
60916
目录名称:
STARLINK-32371
国际标识:
2024-154P
轨道中心:
EARTH
卫星名称:
星链-32371
卫星全名:
星链-32371 (STARLINK-32371)
卫星状态:
在轨 (已飞行742 天)
发射日期:
2024-08-31 UTC
国别 :
美国 (US)
星等 :
--
This satellite is enrolled in the Space Conjunction Data Service (SCDS) and the current flight risk assessment level is: No High Risk
Orbit Information
数据来源 国际轨道数据 AOE轨道数据
星历时间 2026-09-11T17:30:52+0800
19小时前
查看轨道信息
2026-09-07T00:00:00+0800
5天前
查看轨道信息
半长轴 6848.899km 6848.873km
偏心率 0.0001288 0.0001528
轨道倾角 53.158° 53.159°
近地点辐角 83.802° 83.146°
升交点赤经 140.109° 162.129°
平近点角 276.313° 101.903°
近地点 469.879km 469.689km
远地点 471.645km 471.783km
周期 94.014分钟 94.013分钟
每日圈数 15.316928 15.317014
Detailed Information
固有亮度:
5
最大亮度:
2.5
卫星平台:
Starlink V1.0
覆盖范围:
全球
运营商:
太空探索技术公司
运营商所在国:
美国
制造商(研发单位):
太空探索技术公司
制造商所在国:
美国
使用方式:
暂无
Satellite Introduction
Starlink 计划是 SpaceX 推出的全球卫星互联网项目,通过发射低轨道卫星,为全球尤其是偏远地区提供高速、低延迟的互联网服务。自 2019 年起,Starlink 已部署数千颗卫星,旨在缩小全球数字鸿沟,推动互联网普及。该项目还为军事、航空等行业提供通信支持,带来广泛经济效益。
2D Orbit Map
3D Orbit Map
Orbit Altitude Analysis Chart
Orbit Inclination Analysis Chart
Orbit Comprehensive Analysis Chart
View Comprehensive Chart
Conjunction Data List
Event ID Objects TCA Miss Dist (km) Collision Risk Probability Collision Risk Index (CRI) Action
CDM_260912-234306-091606-972021
2026-09-12T
23:43:13+0000
2.640 km
极远距离
1.58541E-6 低风险 0.39
CDM_260912-165206-091606-761221
2026-09-12T
16:52:49+0000
2.981 km
极远距离
1.34716E-6 低风险 0.38
Miss Distance Evolution Trend with All Objects
Collision Probability Evolution Trend with All Objects